Portada
METAR-TAF:

METAR-TAF

Aeroports :

Rurrenabaque, Bolívia

latitud: 14-28S, longitud: 067-34W, altitud: 204 m

Observació

L'informe es va fer fa 1 hora i 24 minuts, a les 11:00 UTC
Vent calma
Temperatura 24°C
Humitat 89%
Pressió 1008 hPa
Visibilitat 10 km o més
Escasses núvols a una alçada de 8000 ft

METAR: SLRQ 241100Z 00000KT 9999 FEW080 24/22 Q1008

Hora: 08:24 (12:24 UTC)


TAF: manca

Observacions i pronòstics meteorològics de més de 4000 aeroports (METAR i TAF).

Les estacions disponibles són els punts grocs i vermells al mapa.

Posi el ratolí al punt desitjat per veure el nom de l'estació.

Feu clic per veure les observacions i els pronòstics meteorològics.

Per canviar el mapa: feu clic els botons verds amb una creu de color negre per apropar; al botó verd amb un guió per allunyar la imatge; o en les fletxes verdes per a mapes adjacents.


METAR-TAF: